{"data":{"norad_id":53194,"epoch":"2026-05-25T02:40:57.250272Z","epoch_age_seconds":65364,"freshness":"FRESH","line1":"1 53194U 22084F   26145.11177373 -.00016250  00000+0 -11220-2 0  9999","line2":"2 53194  97.4483 206.1395 0001932 149.3828 210.7513 15.05740610210871","mean_motion":15.0574061,"eccentricity":0.0001932,"inclination_deg":97.4483,"raan_deg":206.1395,"arg_perigee_deg":149.3828,"mean_anomaly_deg":210.7513,"bstar":-0.001122,"rev_number":21087,"period_min":95.634001662478,"perigee_km":547.89486285653,"apogee_km":550.57159871371,"semimajor_km":6927.3702307851,"source":"CELESTRAK","updated_at":"2026-05-25T13:38:17.348978Z"}}